User: anonymous   Login
Location: Unspecified
(0.0000°N, 0.0000°E)
Time: 22:04:18
(UTC+02:00)
Language:

SJ-6B - Orbit

View from above orbital plane
View from above orbital plane
View from above satellite
View from above satellite

Ground track
Ground track

The orbit data is extracted from the following two-line orbital elements,

1 28415U 04035C   15089.01042082  .00004900  00000-0  34651-3 0  9997
2 28415 097.7984 100.6648 0054311 348.2198 011.7752 15.04158468576687
Epoch (UTC): 30 March 2015 00:15:00
Eccentricity: 0.0054311
inclination: 97.7984°
perigee height: 516 km
apogee height: 592 km
right ascension of ascending node: 100.6648°
argument of perigee: 348.2198°
revolutions per day: 15.04158468
mean anomaly at epoch: 11.7752°
orbit number at epoch: 57668

The dashed part of the orbit path shows where the satellite is in the earth's shadow,  

DLR